owner,sensor,date,latitude,longitude,vertical_datum,wind_speed,wind_to_direction,wind_speed_of_gust,qcFlag 
TABS,ioos:station:wmo:42044:1,2011-10-01T00:00:00Z,26.1914,-97.0507,0.0,4.716534745,44.57018977,6.02,'11111222,11111222,11111222' 
TABS,ioos:station:wmo:42044:1,2011-10-01T00:30:00Z,26.1914,-97.0507,0.0,5.023823245,42.90247103,6.18,'11111222,11111222,11111222' 
TABS,ioos:station:wmo:42044:1,2011-10-01T01:00:00Z,26.1914,-97.0507,0.0,5.133195886,42.0781653,6.58,'11111222,11111222,11111222' 
TABS,ioos:station:wmo:42044:1,2011-10-01T01:30:00Z,26.1914,-97.0507,0.0,4.236472589,28.01652222,5.25,'11111222,11111222,11111222' 
TABS,ioos:station:wmo:42044:1,2011-10-01T02:00:00Z,26.1914,-97.0507,0.0,3.318327892,26.48756079,4.41,'11111222,11111222,11111222' 
TABS,ioos:station:wmo:42044:1,2011-10-01T02:30:00Z,26.1914,-97.0507,0.0,2.528121833,31.74084313,3.49,'11111222,11111222,11111222' 
TABS,ioos:station:wmo:42044:1,2011-10-01T03:00:00Z,26.1914,-97.0507,0.0,2.606645354,38.14458136,3.66,'11111222,11111222,11111222' 
TABS,ioos:station:wmo:42044:1,2011-10-01T03:30:00Z,26.1914,-97.0507,0.0,3.062058131,41.02719766,3.89,'11111222,11111222,11111222' 
TABS,ioos:station:wmo:42044:1,2011-10-01T04:00:00Z,26.1914,-97.0507,0.0,3.253183057,45.99602988,4.67,'11111222,11111222,11111222' 
TABS,ioos:station:wmo:42044:1,2011-10-01T04:30:00Z,26.1914,-97.0507,0.0,3.276659885,42.64977762,4.46,'11111222,11111222,11111222' 
TABS,ioos:station:wmo:42044:1,2011-10-01T05:00:00Z,26.1914,-97.0507,0.0,3.476046605,52.83307249,4.52,'11111222,11111222,11111222' 
TABS,ioos:station:wmo:42044:1,2011-10-01T05:30:00Z,26.1914,-97.0507,0.0,3.682078218,53.50322665,4.71,'11111222,11111222,11111222' 
TABS,ioos:station:wmo:42044:1,2011-10-01T06:00:00Z,26.1914,-97.0507,0.0,3.653833603,63.85535832,4.81,'11111222,11111222,11111222' 
TABS,ioos:station:wmo:42044:1,2011-10-01T06:30:00Z,26.1914,-97.0507,0.0,3.153569406,64.65346241,4.22,'11111222,11111222,11111222' 
TABS,ioos:station:wmo:42044:1,2011-10-01T07:00:00Z,26.1914,-97.0507,0.0,2.999766658,69.51064664,3.89,'11111222,11111222,11111222' 
TABS,ioos:station:wmo:42044:1,2011-10-01T07:30:00Z,26.1914,-97.0507,0.0,2.261526033,70.36284311,3.0,'11111222,11111222,11111222' 
TABS,ioos:station:wmo:42044:1,2011-10-01T08:00:00Z,26.1914,-97.0507,0.0,2.403539057,70.8108268,3.37,'11111222,11111222,11111222' 
TABS,ioos:station:wmo:42044:1,2011-10-01T08:30:00Z,26.1914,-97.0507,0.0,2.673013281,60.6535705,3.84,'11111222,11111222,11111222' 
TABS,ioos:station:wmo:42044:1,2011-10-01T09:00:00Z,26.1914,-97.0507,0.0,2.516028617,53.40303575,3.61,'11111222,11111222,11111222' 
TABS,ioos:station:wmo:42044:1,2011-10-01T09:30:00Z,26.1914,-97.0507,0.0,1.508807476,56.62555577,2.38,'11111222,11111222,11111222' 
TABS,ioos:station:wmo:42044:1,2011-10-01T10:00:00Z,26.1914,-97.0507,0.0,1.588363938,51.90322209,2.3,'11111222,11111222,11111222' 
TABS,ioos:station:wmo:42044:1,2011-10-01T10:30:00Z,26.1914,-97.0507,0.0,2.609693469,7.043093972,3.3,'11111222,11111222,11111222' 
TABS,ioos:station:wmo:42044:1,2011-10-01T11:00:00Z,26.1914,-97.0507,0.0,4.518860476,45.80661188,5.58,'11111222,11111222,11111222' 
TABS,ioos:station:wmo:42044:1,2011-10-01T11:30:00Z,26.1914,-97.0507,0.0,6.479459854,3.096226789,10.36,'11111222,11111222,11111222' 
TABS,ioos:station:wmo:42044:1,2011-10-01T12:00:00Z,26.1914,-97.0507,0.0,5.238396701,351.436594,6.77,'11111222,11111222,11111222' 
TABS,ioos:station:wmo:42044:1,2011-10-01T12:30:00Z,26.1914,-97.0507,0.0,3.482326808,22.80944731,4.85,'11111222,11111222,11111222' 
TABS,ioos:station:wmo:42044:1,2011-10-01T13:00:00Z,26.1914,-97.0507,0.0,7.16247164,121.7598267,10.34,'11111222,11111222,11111222' 
TABS,ioos:station:wmo:42044:1,2011-10-01T13:30:00Z,26.1914,-97.0507,0.0,4.674409054,134.2202416,6.87,'11111222,11111222,11111222' 
TABS,ioos:station:wmo:42044:1,2011-10-01T14:00:00Z,26.1914,-97.0507,0.0,2.367826007,139.110304,3.93,'11111222,11111222,11111222' 
TABS,ioos:station:wmo:42044:1,2011-10-01T14:30:00Z,26.1914,-97.0507,0.0,0.943398113,175.1357074,1.84,'11111222,11111222,11111222' 
TABS,ioos:station:wmo:42044:1,2011-10-01T15:00:00Z,26.1914,-97.0507,0.0,1.482160585,266.9059492,2.66,'11111222,11111222,11111222' 
TABS,ioos:station:wmo:42044:1,2011-10-01T15:30:00Z,26.1914,-97.0507,0.0,1.92314846,266.7210214,3.77,'11111222,11111222,11111222' 
TABS,ioos:station:wmo:42044:1,2011-10-01T16:00:00Z,26.1914,-97.0507,0.0,1.605895389,27.84135051,5.53,'11111222,11111222,11111222' 
TABS,ioos:station:wmo:42044:1,2011-10-01T16:30:00Z,26.1914,-97.0507,0.0,5.711497177,72.26259245,8.28,'11111222,11111222,11111222' 
TABS,ioos:station:wmo:42044:1,2011-10-01T17:00:00Z,26.1914,-97.0507,0.0,5.433856825,70.43091453,7.54,'11111222,11111222,11111222' 
TABS,ioos:station:wmo:42044:1,2011-10-01T17:30:00Z,26.1914,-97.0507,0.0,5.157130985,74.93937845,7.2,'11111222,11111222,11111222' 
TABS,ioos:station:wmo:42044:1,2011-10-01T18:00:00Z,26.1914,-97.0507,0.0,5.809070494,75.34139421,7.96,'11111222,11111222,11111222' 
TABS,ioos:station:wmo:42044:1,2011-10-01T18:30:00Z,26.1914,-97.0507,0.0,6.169943274,80.76627716,9.63,'11111222,11111222,11111222' 
TABS,ioos:station:wmo:42044:1,2011-10-01T19:00:00Z,26.1914,-97.0507,0.0,5.972277622,77.91825121,8.44,'11111222,11111222,11111222' 
TABS,ioos:station:wmo:42044:1,2011-10-01T19:30:00Z,26.1914,-97.0507,0.0,5.65220311,79.08727698,8.43,'11111222,11111222,11111222' 
TABS,ioos:station:wmo:42044:1,2011-10-01T20:00:00Z,26.1914,-97.0507,0.0,6.040993296,79.5081266,8.53,'11111222,11111222,11111222' 
TABS,ioos:station:wmo:42044:1,2011-10-01T20:30:00Z,26.1914,-97.0507,0.0,5.986292676,71.89760787,8.61,'11111222,11111222,11111222' 
TABS,ioos:station:wmo:42044:1,2011-10-01T21:00:00Z,26.1914,-97.0507,0.0,6.403030532,76.26720613,9.05,'11111222,11111222,11111222' 
TABS,ioos:station:wmo:42044:1,2011-10-01T21:30:00Z,26.1914,-97.0507,0.0,5.810550748,70.28610422,8.17,'11111222,11111222,11111222' 
TABS,ioos:station:wmo:42044:1,2011-10-01T22:00:00Z,26.1914,-97.0507,0.0,6.048049272,77.29611937,8.38,'11111222,11111222,11111222' 
TABS,ioos:station:wmo:42044:1,2011-10-01T22:30:00Z,26.1914,-97.0507,0.0,5.908366949,75.49297141,8.36,'11111222,11111222,11111222' 
TABS,ioos:station:wmo:42044:1,2011-10-01T23:00:00Z,26.1914,-97.0507,0.0,5.88007653,77.02690306,8.04,'11111222,11111222,11111222' 
TABS,ioos:station:wmo:42044:1,2011-10-01T23:30:00Z,26.1914,-97.0507,0.0,6.413930152,74.81500891,9.35,'11111222,11111222,11111222' 
TABS,ioos:station:wmo:42044:1,2011-10-02T00:00:00Z,26.1914,-97.0507,0.0,6.284154677,75.72012324,8.68,'11111222,11111222,11111222' 
TABS,ioos:station:wmo:42044:1,2011-10-02T00:30:00Z,26.1914,-97.0507,0.0,5.926769778,72.42068122,8.06,'11111222,11111222,11111222' 
TABS,ioos:station:wmo:42044:1,2011-10-02T01:00:00Z,26.1914,-97.0507,0.0,5.597034929,67.74199416,7.9,'11111222,11111222,11111222' 
TABS,ioos:station:wmo:42044:1,2011-10-02T01:30:00Z,26.1914,-97.0507,0.0,5.604587407,72.6638906,8.18,'11111222,11111222,11111222' 
TABS,ioos:station:wmo:42044:1,2011-10-02T02:00:00Z,26.1914,-97.0507,0.0,5.207782638,85.26335834,7.89,'11111222,11111222,11111222' 
TABS,ioos:station:wmo:42044:1,2011-10-02T02:30:00Z,26.1914,-97.0507,0.0,4.690042644,70.83064929,7.27,'11111222,11111222,11111222' 
TABS,ioos:station:wmo:42044:1,2011-10-02T03:00:00Z,26.1914,-97.0507,0.0,4.783272938,78.66618161,7.59,'11111222,11111222,11111222' 
TABS,ioos:station:wmo:42044:1,2011-10-02T03:30:00Z,26.1914,-97.0507,0.0,5.328236106,80.82013086,7.86,'11111222,11111222,11111222' 
TABS,ioos:station:wmo:42044:1,2011-10-02T04:00:00Z,26.1914,-97.0507,0.0,4.315194086,82.6769522,6.61,'11111222,11111222,11111222' 
TABS,ioos:station:wmo:42044:1,2011-10-02T04:30:00Z,26.1914,-97.0507,0.0,4.873602364,73.79584276,6.95,'11111222,11111222,11111222' 
TABS,ioos:station:wmo:42044:1,2011-10-02T05:00:00Z,26.1914,-97.0507,0.0,4.88279633,80.09358422,6.64,'11111222,11111222,11111222' 
TABS,ioos:station:wmo:42044:1,2011-10-02T05:30:00Z,26.1914,-97.0507,0.0,3.908004606,73.65144576,6.51,'11111222,11111222,11111222' 
TABS,ioos:station:wmo:42044:1,2011-10-02T06:00:00Z,26.1914,-97.0507,0.0,4.558080736,57.63451209,6.86,'11111222,11111222,11111222' 
TABS,ioos:station:wmo:42044:1,2011-10-02T06:30:00Z,26.1914,-97.0507,0.0,4.352769233,59.48738794,6.41,'11111222,11111222,11111222' 
TABS,ioos:station:wmo:42044:1,2011-10-02T07:00:00Z,26.1914,-97.0507,0.0,4.041435389,49.21385298,6.01,'11111222,11111222,11111222' 
TABS,ioos:station:wmo:42044:1,2011-10-02T07:30:00Z,26.1914,-97.0507,0.0,4.092065493,63.12150218,5.87,'11111222,11111222,11111222' 
TABS,ioos:station:wmo:42044:1,2011-10-02T08:00:00Z,26.1914,-97.0507,0.0,4.249764699,69.47514108,6.68,'11111222,11111222,11111222' 
TABS,ioos:station:wmo:42044:1,2011-10-02T08:30:00Z,26.1914,-97.0507,0.0,4.217831196,76.42462301,7.23,'11111222,11111222,11111222' 
TABS,ioos:station:wmo:42044:1,2011-10-02T09:00:00Z,26.1914,-97.0507,0.0,4.724235388,68.64864876,6.54,'11111222,11111222,11111222' 
TABS,ioos:station:wmo:42044:1,2011-10-02T09:30:00Z,26.1914,-97.0507,0.0,4.467885406,67.91245913,6.32,'11111222,11111222,11111222' 
TABS,ioos:station:wmo:42044:1,2011-10-02T10:00:00Z,26.1914,-97.0507,0.0,4.870318265,70.82061591,7.53,'11111222,11111222,11111222' 
TABS,ioos:station:wmo:42044:1,2011-10-02T10:30:00Z,26.1914,-97.0507,0.0,3.871253027,70.53496055,5.8,'11111222,11111222,11111222' 
TABS,ioos:station:wmo:42044:1,2011-10-02T11:00:00Z,26.1914,-97.0507,0.0,4.515584126,61.27779514,6.55,'11111222,11111222,11111222' 
TABS,ioos:station:wmo:42044:1,2011-10-02T11:30:00Z,26.1914,-97.0507,0.0,4.513103145,67.18445282,6.45,'11111222,11111222,11111222' 
TABS,ioos:station:wmo:42044:1,2011-10-02T12:00:00Z,26.1914,-97.0507,0.0,3.92390112,59.18614543,6.81,'11111222,11111222,11111222' 
TABS,ioos:station:wmo:42044:1,2011-10-02T12:30:00Z,26.1914,-97.0507,0.0,4.976946855,59.31230185,7.17,'11111222,11111222,11111222' 
TABS,ioos:station:wmo:42044:1,2011-10-02T13:00:00Z,26.1914,-97.0507,0.0,4.459159114,62.63009021,7.14,'11111222,11111222,11111222' 
TABS,ioos:station:wmo:42044:1,2011-10-02T13:30:00Z,26.1914,-97.0507,0.0,4.58704698,73.14484215,6.8,'11111222,11111222,11111222' 
TABS,ioos:station:wmo:42044:1,2011-10-02T14:00:00Z,26.1914,-97.0507,0.0,4.235327614,41.74557578,6.38,'11111222,11111222,11111222' 
TABS,ioos:station:wmo:42044:1,2011-10-02T14:30:00Z,26.1914,-97.0507,0.0,4.436361121,63.49234771,6.35,'11111222,11111222,11111222' 
TABS,ioos:station:wmo:42044:1,2011-10-02T15:00:00Z,26.1914,-97.0507,0.0,4.418619694,52.17017478,6.65,'11111222,11111222,11111222' 
TABS,ioos:station:wmo:42044:1,2011-10-02T15:30:00Z,26.1914,-97.0507,0.0,4.823214696,56.67200764,7.55,'11111222,11111222,11111222' 
TABS,ioos:station:wmo:42044:1,2011-10-02T16:00:00Z,26.1914,-97.0507,0.0,4.622520957,61.43864733,6.11,'11111222,11111222,11111222' 
TABS,ioos:station:wmo:42044:1,2011-10-02T16:30:00Z,26.1914,-97.0507,0.0,4.274225076,55.67754202,6.67,'11111222,11111222,11111222' 
TABS,ioos:station:wmo:42044:1,2011-10-02T17:00:00Z,26.1914,-97.0507,0.0,4.28298961,55.27066401,6.7,'11111222,11111222,11111222' 
TABS,ioos:station:wmo:42044:1,2011-10-02T17:30:00Z,26.1914,-97.0507,0.0,4.649440827,58.63434592,6.32,'11111222,11111222,11111222' 
TABS,ioos:station:wmo:42044:1,2011-10-02T18:00:00Z,26.1914,-97.0507,0.0,4.348850423,56.34613092,6.74,'11111222,11111222,11111222' 
TABS,ioos:station:wmo:42044:1,2011-10-02T18:30:00Z,26.1914,-97.0507,0.0,3.751106503,60.97471441,5.8,'11111222,11111222,11111222' 
TABS,ioos:station:wmo:42044:1,2011-10-02T19:00:00Z,26.1914,-97.0507,0.0,4.486423966,58.86067946,6.94,'11111222,11111222,11111222' 
TABS,ioos:station:wmo:42044:1,2011-10-02T19:30:00Z,26.1914,-97.0507,0.0,4.94231727,74.38862705,7.16,'11111222,11111222,11111222' 
TABS,ioos:station:wmo:42044:1,2011-10-02T20:00:00Z,26.1914,-97.0507,0.0,5.047474616,76.59659582,7.01,'11111222,11111222,11111222' 
TABS,ioos:station:wmo:42044:1,2011-10-02T20:30:00Z,26.1914,-97.0507,0.0,5.505869595,68.14024861,7.69,'11111222,11111222,11111222' 
TABS,ioos:station:wmo:42044:1,2011-10-02T21:00:00Z,26.1914,-97.0507,0.0,4.880256141,70.48795391,7.23,'11111222,11111222,11111222' 
TABS,ioos:station:wmo:42044:1,2011-10-02T21:30:00Z,26.1914,-97.0507,0.0,4.619372252,66.931334,6.51,'11111222,11111222,11111222' 
TABS,ioos:station:wmo:42044:1,2011-10-02T22:00:00Z,26.1914,-97.0507,0.0,4.46060534,81.36086038,6.72,'11111222,11111222,11111222' 
TABS,ioos:station:wmo:42044:1,2011-10-02T22:30:00Z,26.1914,-97.0507,0.0,5.060088932,89.65988556,6.95,'11111222,11111222,11111222' 
TABS,ioos:station:wmo:42044:1,2011-10-02T23:00:00Z,26.1914,-97.0507,0.0,4.630874647,88.88598108,7.15,'11111222,11111222,11111222' 
TABS,ioos:station:wmo:42044:1,2011-10-02T23:30:00Z,26.1914,-97.0507,0.0,4.677317607,98.97939486,7.17,'11111222,11111222,11111222' 
TABS,ioos:station:wmo:42044:1,2011-10-03T00:00:00Z,26.1914,-97.0507,0.0,4.127577982,93.47284078,6.2,'11111222,11111222,11111222' 
TABS,ioos:station:wmo:42044:1,2011-10-03T00:30:00Z,26.1914,-97.0507,0.0,4.094203219,98.42737023,5.9,'11111222,11111222,11111222' 
TABS,ioos:station:wmo:42044:1,2011-10-03T01:00:00Z,26.1914,-97.0507,0.0,3.459537541,108.5400718,4.77,'11111222,11111222,11111222' 
TABS,ioos:station:wmo:42044:1,2011-10-03T01:30:00Z,26.1914,-97.0507,0.0,4.936334673,87.09660701,7.3,'11111222,11111222,11111222' 
TABS,ioos:station:wmo:42044:1,2011-10-03T02:00:00Z,26.1914,-97.0507,0.0,4.059605892,78.63431496,5.7,'11111222,11111222,11111222' 
TABS,ioos:station:wmo:42044:1,2011-10-03T02:30:00Z,26.1914,-97.0507,0.0,4.208681504,78.90326254,6.79,'11111222,11111222,11111222' 
TABS,ioos:station:wmo:42044:1,2011-10-03T03:00:00Z,26.1914,-97.0507,0.0,4.235858827,97.4609696,6.26,'11111222,11111222,11111222' 
TABS,ioos:station:wmo:42044:1,2011-10-03T03:30:00Z,26.1914,-97.0507,0.0,3.73085781,91.22909357,5.59,'11111222,11111222,11111222' 
TABS,ioos:station:wmo:42044:1,2011-10-03T04:00:00Z,26.1914,-97.0507,0.0,4.085339643,74.6706932,6.19,'11111222,11111222,11111222' 
TABS,ioos:station:wmo:42044:1,2011-10-03T04:30:00Z,26.1914,-97.0507,0.0,3.707775613,93.71169605,5.51,'11111222,11111222,11111222' 
TABS,ioos:station:wmo:42044:1,2011-10-03T05:00:00Z,26.1914,-97.0507,0.0,2.338567938,94.90647643,4.22,'11111222,11111222,11111222' 
TABS,ioos:station:wmo:42044:1,2011-10-03T05:30:00Z,26.1914,-97.0507,0.0,2.185863674,94.19807946,3.44,'11111222,11111222,11111222' 
TABS,ioos:station:wmo:42044:1,2011-10-03T06:00:00Z,26.1914,-97.0507,0.0,4.404100362,87.52698503,7.31,'11111222,11111222,11111222' 
TABS,ioos:station:wmo:42044:1,2011-10-03T06:30:00Z,26.1914,-97.0507,0.0,3.552689122,85.15559003,5.43,'11111222,11111222,11111222' 
TABS,ioos:station:wmo:42044:1,2011-10-03T07:00:00Z,26.1914,-97.0507,0.0,4.051789728,78.467813,6.53,'11111222,11111222,11111222' 
TABS,ioos:station:wmo:42044:1,2011-10-03T07:30:00Z,26.1914,-97.0507,0.0,4.253810057,87.57438936,6.39,'11111222,11111222,11111222' 
TABS,ioos:station:wmo:42044:1,2011-10-03T08:00:00Z,26.1914,-97.0507,0.0,3.682241165,85.32640166,6.21,'11111222,11111222,11111222' 
TABS,ioos:station:wmo:42044:1,2011-10-03T08:30:00Z,26.1914,-97.0507,0.0,3.810013123,90.15080284,5.85,'11111222,11111222,11111222' 
TABS,ioos:station:wmo:42044:1,2011-10-03T09:00:00Z,26.1914,-97.0507,0.0,4.277662913,73.42866667,6.48,'11111222,11111222,11111222' 
TABS,ioos:station:wmo:42044:1,2011-10-03T09:30:00Z,26.1914,-97.0507,0.0,4.256994245,82.44052978,6.25,'11111222,11111222,11111222' 
TABS,ioos:station:wmo:42044:1,2011-10-03T10:00:00Z,26.1914,-97.0507,0.0,3.947074866,66.87728448,6.32,'11111222,11111222,11111222' 
TABS,ioos:station:wmo:42044:1,2011-10-03T10:30:00Z,26.1914,-97.0507,0.0,4.360837076,71.27383503,6.86,'11111222,11111222,11111222' 
TABS,ioos:station:wmo:42044:1,2011-10-03T11:00:00Z,26.1914,-97.0507,0.0,4.444434722,79.49873695,6.81,'11111222,11111222,11111222' 
TABS,ioos:station:wmo:42044:1,2011-10-03T11:30:00Z,26.1914,-97.0507,0.0,4.159278784,74.09206435,6.71,'11111222,11111222,11111222' 
TABS,ioos:station:wmo:42044:1,2011-10-03T12:00:00Z,26.1914,-97.0507,0.0,4.348080036,69.39731359,6.01,'11111222,11111222,11111222' 
TABS,ioos:station:wmo:42044:1,2011-10-03T12:30:00Z,26.1914,-97.0507,0.0,3.931539139,75.71594893,5.78,'11111222,11111222,11111222' 
TABS,ioos:station:wmo:42044:1,2011-10-03T13:00:00Z,26.1914,-97.0507,0.0,3.479324647,63.36094528,5.54,'11111222,11111222,11111222' 
TABS,ioos:station:wmo:42044:1,2011-10-03T13:30:00Z,26.1914,-97.0507,0.0,3.978002011,73.79702489,5.68,'11111222,11111222,11111222' 
TABS,ioos:station:wmo:42044:1,2011-10-03T14:00:00Z,26.1914,-97.0507,0.0,3.405774508,47.97495126,5.21,'11111222,11111222,11111222' 
TABS,ioos:station:wmo:42044:1,2011-10-03T14:30:00Z,26.1914,-97.0507,0.0,3.575765652,58.8435362,5.31,'11111222,11111222,11111222' 
TABS,ioos:station:wmo:42044:1,2011-10-03T15:00:00Z,26.1914,-97.0507,0.0,3.0835045,43.94850602,5.0,'11111222,11111222,11111222' 
TABS,ioos:station:wmo:42044:1,2011-10-03T15:30:00Z,26.1914,-97.0507,0.0,3.734487917,66.31754674,5.47,'11111222,11111222,11111222' 
TABS,ioos:station:wmo:42044:1,2011-10-03T16:00:00Z,26.1914,-97.0507,0.0,3.4780023,53.06387275,5.48,'11111222,11111222,11111222' 
TABS,ioos:station:wmo:42044:1,2011-10-03T16:30:00Z,26.1914,-97.0507,0.0,3.495854688,65.85409358,6.03,'11111222,11111222,11111222' 
TABS,ioos:station:wmo:42044:1,2011-10-03T17:00:00Z,26.1914,-97.0507,0.0,3.3184635,68.61502542,5.15,'11111222,11111222,11111222' 
TABS,ioos:station:wmo:42044:1,2011-10-03T17:30:00Z,26.1914,-97.0507,0.0,2.775842215,39.88455114,4.6,'11111222,11111222,11111222' 
TABS,ioos:station:wmo:42044:1,2011-10-03T18:00:00Z,26.1914,-97.0507,0.0,3.488524043,58.35987151,5.17,'11111222,11111222,11111222' 
TABS,ioos:station:wmo:42044:1,2011-10-03T18:30:00Z,26.1914,-97.0507,0.0,2.544032233,57.68392234,4.42,'11111222,11111222,11111222' 
TABS,ioos:station:wmo:42044:1,2011-10-03T19:00:00Z,26.1914,-97.0507,0.0,2.453079697,65.94228589,4.47,'11111222,11111222,11111222' 
TABS,ioos:station:wmo:42044:1,2011-10-03T19:30:00Z,26.1914,-97.0507,0.0,2.8,53.12976765,4.88,'11111222,11111222,11111222' 
TABS,ioos:station:wmo:42044:1,2011-10-03T20:00:00Z,26.1914,-97.0507,0.0,3.795629065,68.03003423,6.1,'11111222,11111222,11111222' 
TABS,ioos:station:wmo:42044:1,2011-10-03T20:30:00Z,26.1914,-97.0507,0.0,3.684901627,70.33534176,5.79,'11111222,11111222,11111222' 
TABS,ioos:station:wmo:42044:1,2011-10-03T21:00:00Z,26.1914,-97.0507,0.0,3.831057295,74.40345457,5.51,'11111222,11111222,11111222' 
TABS,ioos:station:wmo:42044:1,2011-10-03T21:30:00Z,26.1914,-97.0507,0.0,3.627698995,62.23374742,5.18,'11111222,11111222,11111222' 
TABS,ioos:station:wmo:42044:1,2011-10-03T22:00:00Z,26.1914,-97.0507,0.0,3.813790765,71.18460833,5.81,'11111222,11111222,11111222' 
TABS,ioos:station:wmo:42044:1,2011-10-03T22:30:00Z,26.1914,-97.0507,0.0,3.442237644,85.1668344,5.34,'11111222,11111222,11111222' 
TABS,ioos:station:wmo:42044:1,2011-10-03T23:00:00Z,26.1914,-97.0507,0.0,4.568205337,66.52107207,6.83,'11111222,11111222,11111222' 
TABS,ioos:station:wmo:42044:1,2011-10-03T23:30:00Z,26.1914,-97.0507,0.0,4.112626898,74.3412704,6.43,'11111222,11111222,11111222' 
TABS,ioos:station:wmo:42044:1,2011-10-04T00:00:00Z,26.1914,-97.0507,0.0,4.275792324,77.84869646,6.59,'11111222,11111222,11111222' 
TABS,ioos:station:wmo:42044:1,2011-10-04T00:30:00Z,26.1914,-97.0507,0.0,3.990801924,67.61168723,6.57,'11111222,11111222,11111222' 
TABS,ioos:station:wmo:42044:1,2011-10-04T01:00:00Z,26.1914,-97.0507,0.0,4.208681504,101.0967375,6.81,'11111222,11111222,11111222' 
TABS,ioos:station:wmo:42044:1,2011-10-04T01:30:00Z,26.1914,-97.0507,0.0,4.706846078,101.0238511,6.75,'11111222,11111222,11111222' 
TABS,ioos:station:wmo:42044:1,2011-10-04T02:00:00Z,26.1914,-97.0507,0.0,4.522001769,106.3112693,6.85,'11111222,11111222,11111222' 
TABS,ioos:station:wmo:42044:1,2011-10-04T02:30:00Z,26.1914,-97.0507,0.0,5.932705959,119.3738883,8.12,'11111222,11111222,11111222' 
TABS,ioos:station:wmo:42044:1,2011-10-04T03:00:00Z,26.1914,-97.0507,0.0,5.069605507,111.403025,7.03,'11111222,11111222,11111222' 
TABS,ioos:station:wmo:42044:1,2011-10-04T03:30:00Z,26.1914,-97.0507,0.0,4.831397313,104.3817819,6.67,'11111222,11111222,11111222' 
TABS,ioos:station:wmo:42044:1,2011-10-04T04:00:00Z,26.1914,-97.0507,0.0,4.870256667,116.1971235,7.01,'11111222,11111222,11111222' 
TABS,ioos:station:wmo:42044:1,2011-10-04T04:30:00Z,26.1914,-97.0507,0.0,5.057835505,109.7608805,7.13,'11111222,11111222,11111222' 
TABS,ioos:station:wmo:42044:1,2011-10-04T05:00:00Z,26.1914,-97.0507,0.0,4.758655272,115.9192459,7.04,'11111222,11111222,11111222' 
TABS,ioos:station:wmo:42044:1,2011-10-04T05:30:00Z,26.1914,-97.0507,0.0,3.918737041,107.3718492,5.49,'11111222,11111222,11111222' 
TABS,ioos:station:wmo:42044:1,2011-10-04T06:00:00Z,26.1914,-97.0507,0.0,3.703687352,122.3172938,5.24,'11111222,11111222,11111222' 
TABS,ioos:station:wmo:42044:1,2011-10-04T06:30:00Z,26.1914,-97.0507,0.0,4.110960958,102.0756813,5.83,'11111222,11111222,11111222' 
TABS,ioos:station:wmo:42044:1,2011-10-04T07:00:00Z,26.1914,-97.0507,0.0,3.58403404,99.96207407,5.28,'11111222,11111222,11111222' 
TABS,ioos:station:wmo:42044:1,2011-10-04T07:30:00Z,26.1914,-97.0507,0.0,2.873412605,124.0775365,4.21,'11111222,11111222,11111222' 
TABS,ioos:station:wmo:42044:1,2011-10-04T08:00:00Z,26.1914,-97.0507,0.0,2.571944789,92.22869936,3.89,'11111222,11111222,11111222' 
TABS,ioos:station:wmo:42044:1,2011-10-04T08:30:00Z,26.1914,-97.0507,0.0,2.062862089,83.59805781,3.68,'11111222,11111222,11111222' 
TABS,ioos:station:wmo:42044:1,2011-10-04T09:00:00Z,26.1914,-97.0507,0.0,1.117586686,133.5501028,2.35,'11111222,11111222,11111222' 
TABS,ioos:station:wmo:42044:1,2011-10-04T09:30:00Z,26.1914,-97.0507,0.0,0.581377674,93.94559792,1.16,'11111222,11111222,11111222' 
TABS,ioos:station:wmo:42044:1,2011-10-04T10:00:00Z,26.1914,-97.0507,0.0,0.422018957,13.70671849,2.38,'11111222,11111222,11111222' 
TABS,ioos:station:wmo:42044:1,2011-10-04T10:30:00Z,26.1914,-97.0507,0.0,1.489295135,202.0873304,2.38,'11111222,11111222,11111222' 
TABS,ioos:station:wmo:42044:1,2011-10-04T11:00:00Z,26.1914,-97.0507,0.0,1.662077014,195.7088116,2.73,'11111222,11111222,11111222' 
TABS,ioos:station:wmo:42044:1,2011-10-04T11:30:00Z,26.1914,-97.0507,0.0,1.533949152,175.8879912,3.29,'11111222,11111222,11111222' 
TABS,ioos:station:wmo:42044:1,2011-10-04T12:00:00Z,26.1914,-97.0507,0.0,2.071834936,151.4560299,3.61,'11111222,11111222,11111222' 
TABS,ioos:station:wmo:42044:1,2011-10-04T12:30:00Z,26.1914,-97.0507,0.0,1.600656115,147.5016405,3.01,'11111222,11111222,11111222' 
TABS,ioos:station:wmo:42044:1,2011-10-04T13:00:00Z,26.1914,-97.0507,0.0,2.277740108,151.4098933,3.41,'11111222,11111222,11111222' 
TABS,ioos:station:wmo:42044:1,2011-10-04T13:30:00Z,26.1914,-97.0507,0.0,1.504426801,169.6613241,2.43,'11111222,11111222,11111222' 
TABS,ioos:station:wmo:42044:1,2011-10-04T14:00:00Z,26.1914,-97.0507,0.0,1.841765457,167.7751164,3.22,'11111222,11111222,11111222' 
TABS,ioos:station:wmo:42044:1,2011-10-04T14:30:00Z,26.1914,-97.0507,0.0,3.231238153,282.8749715,4.38,'11111222,11111222,11111222' 
TABS,ioos:station:wmo:42044:1,2011-10-04T15:00:00Z,26.1914,-97.0507,0.0,3.853154552,290.0338763,5.1,'11111222,11111222,11111222' 
TABS,ioos:station:wmo:42044:1,2011-10-04T15:30:00Z,26.1914,-97.0507,0.0,3.384228125,289.5057277,5.1,'11111222,11111222,11111222' 
TABS,ioos:station:wmo:42044:1,2011-10-04T16:00:00Z,26.1914,-97.0507,0.0,3.320512009,300.1942641,5.11,'11111222,11111222,11111222' 
TABS,ioos:station:wmo:42044:1,2011-10-04T16:30:00Z,26.1914,-97.0507,0.0,3.160775221,305.6008116,4.36,'11111222,11111222,11111222' 
TABS,ioos:station:wmo:42044:1,2011-10-04T17:00:00Z,26.1914,-97.0507,0.0,1.289689885,326.0633694,2.38,'11111222,11111222,11111222' 
TABS,ioos:station:wmo:42044:1,2011-10-04T17:30:00Z,26.1914,-97.0507,0.0,1.746138597,343.0177228,3.05,'11111222,11111222,11111222' 
TABS,ioos:station:wmo:42044:1,2011-10-04T18:00:00Z,26.1914,-97.0507,0.0,1.351480669,12.39061723,2.53,'11111222,11111222,11111222' 
TABS,ioos:station:wmo:42044:1,2011-10-04T18:30:00Z,26.1914,-97.0507,0.0,1.714059509,34.06061871,2.8,'11111222,11111222,11111222' 